TimeSAST,TemperatureF,Dew PointF,Humidity,Sea Level PressureIn,VisibilityMPH,Wind Direction,Wind SpeedMPH,Gust SpeedMPH,PrecipitationIn,Events,Conditions,WindDirDegrees,DateUTC
12:00 AM,55.4,50.0,82,30.15,-9999.0,North,3.5,-,N/A,,Clear,360,2013-02-20 22:00:00
1:00 AM,55.4,50.0,82,30.15,-9999.0,North,3.5,-,N/A,,Clear,350,2013-02-20 23:00:00
2:00 AM,54,49,77,30.15,12,North,3.5,,,,,350,2013-02-21 00:00:00
2:00 AM,53.6,48.2,82,30.12,-9999.0,North,3.5,-,N/A,,Clear,10,2013-02-21 00:00:00
3:00 AM,53.6,48.2,82,30.12,-9999.0,North,3.5,-,N/A,,Clear,350,2013-02-21 01:00:00
4:00 AM,53.6,46.4,77,30.09,-9999.0,North,3.5,-,N/A,,Clear,350,2013-02-21 02:00:00
5:00 AM,52,46,74,30.09,19,NNE,4.6,,,,,20,2013-02-21 03:00:00
5:00 AM,51.8,46.4,82,30.06,-9999.0,North,4.6,-,N/A,,Clear,10,2013-02-21 03:00:00
6:00 AM,53.6,46.4,77,30.06,-9999.0,North,2.3,-,N/A,,Clear,10,2013-02-21 04:00:00
7:00 AM,53.6,46.4,77,30.06,-9999.0,Variable,2.3,-,N/A,,Clear,0,2013-02-21 05:00:00
8:00 AM,62,51,59,30.08,12,NNE,2.3,,,,,20,2013-02-21 06:00:00
8:00 AM,60.8,51.8,72,30.06,-9999.0,NNE,2.3,-,N/A,,Clear,20,2013-02-21 06:00:00
9:00 AM,66.2,48.2,52,30.06,-9999.0,East,4.6,-,N/A,,Clear,90,2013-02-21 07:00:00
10:00 AM,69.8,48.2,46,30.04,-9999.0,NE,3.5,-,N/A,,Clear,40,2013-02-21 08:00:00
11:00 AM,71,52,40,30.04,12,SE,9.2,,,,,130,2013-02-21 09:00:00
11:00 AM,71.6,51.8,50,30.04,-9999.0,SE,9.2,-,N/A,,Clear,130,2013-02-21 09:00:00
12:00 PM,71.6,53.6,53,30.01,-9999.0,SE,12.7,-,N/A,,Clear,140,2013-02-21 10:00:00
1:00 PM,73.4,53.6,50,29.98,-9999.0,SE,10.4,-,N/A,,Clear,130,2013-02-21 11:00:00
2:00 PM,72,56,47,30.01,12,ESE,10.4,,,,,110,2013-02-21 12:00:00
2:00 PM,71.6,53.6,53,29.98,-9999.0,SE,11.5,-,N/A,,Clear,140,2013-02-21 12:00:00
3:00 PM,71.6,53.6,53,29.98,-9999.0,SE,10.4,-,N/A,,Clear,140,2013-02-21 13:00:00
4:00 PM,71.6,55.4,57,29.98,-9999.0,ESE,8.1,-,N/A,,Clear,120,2013-02-21 14:00:00
5:00 PM,71,54,44,29.98,12,SE,9.2,,,,,130,2013-02-21 15:00:00
5:00 PM,71.6,53.6,53,29.98,-9999.0,SE,8.1,-,N/A,,Clear,130,2013-02-21 15:00:00
6:00 PM,68.0,53.6,60,29.98,-9999.0,SE,8.1,-,N/A,,Clear,140,2013-02-21 16:00:00
7:00 PM,66.2,53.6,64,30.01,-9999.0,SE,6.9,-,N/A,,Clear,140,2013-02-21 17:00:00
8:00 PM,63,54,64,30.02,12,East,2.3,,,,,80,2013-02-21 18:00:00
8:00 PM,62.6,53.6,72,30.01,-9999.0,East,3.5,-,N/A,,Clear,90,2013-02-21 18:00:00
9:00 PM,60.8,53.6,77,30.04,-9999.0,NNE,5.8,-,N/A,,Clear,20,2013-02-21 19:00:00
10:00 PM,59.0,53.6,82,30.04,-9999.0,NNW,3.5,-,N/A,,Clear,330,2013-02-21 20:00:00
11:00 PM,57.2,51.8,82,30.04,-9999.0,NW,4.6,-,N/A,,Clear,320,2013-02-21 21:00:00